weather.gov     
National Weather Service

Terminal Aerodrome Forecast
NWS Homepage
This page is being discontinued on March 12, 2014.
The same data is available at this site. Please update your bookmarks.
Thank you, and we apologize for the inconvenience.
Please send an email to SR-SRH.Webmaster@noaa.gov with any concerns.


Current Version
Previous Version:    01  02  03  04  05  06  07  08  09  10  11  12  13  14  15  16  17  18  19  20  21  22  23  24  25  26  27  28  29  30  
   31  32  33  34  35  36  37  38  39  40  41  42  43  44  45  46  47  
[Printable]
107
FTUS44 KEWX 170500
TAFSSF
TAF
KSSF 170520Z 1706/1806 06005KT P6SM BKN025
     FM170800 11005KT P6SM OVC011
     FM171400 12005KT P6SM -SHRA BKN020 BKN040
     FM171800 14010KT P6SM BKN040 PROB30 1718/1724 5SM TSRA BKN040CB
     FM180300 11007KT P6SM -SHRA BKN014 OVC040=


U.S. Dept. of Commerce
NOAA National Weather Service
1325 East West Highway
Silver Spring, MD 20910
E-mail: w-nws.webmaster@noaa.gov
Page last modified: May 16, 2007
NATIONAL WEATHER SERVICE: for Safety, for Work, for Fun - FOR LIFE